Location: 5810 Zion Rd, Cleves, OH 45002, USA
(39.1922°N, 84.7113°W)
Time: 10:27:29
(UTC-05:00)

Vanguard 3 - Pass Details

Date: 17 December 2019
Orbit: 508 x 3263 km, 33.3° (Epoch: 19 January)

Event Time Altitude Azimuth Distance (km) Brightness Sun altitude
Rises 09:43:41 0° 268° (W) 3,724 10.2 15.8°
Reaches altitude 10° 09:45:52 10° 264° (W) 3,026 9.8 16.0°
Maximum altitude 09:53:24 57° 188° (S) 1,897 9.7 16.9°
Drops below altitude 10° 10:06:51 10° 115° (ESE) 5,216 12.5 18.5°
Sets 10:11:54 0° 112° (ESE) 6,599 12.7 19.1°
